Location: Geroldsau
(48.7259°N, 8.2466°E)
Time: 04:44:22
(UTC+00:00)

FENGYUN 1C DEB - Pass Details

Date: 01 February 2022
Orbit: 832 x 1169 km, 98.6° (Epoch: 18 May)

Event Time Altitude Azimuth Distance (km) Brightness Sun altitude
Rises 18:37:43 0° 4° (N) 3,524 ? -22.0°
Reaches altitude 10° 18:40:37 10° 349° (N) 2,628 ? -22.5°
Maximum altitude 18:44:50 21° 303° (WNW) 2,019 ? -23.2°
Drops below altitude 10° 18:49:16 10° 257° (WSW) 2,780 ? -23.9°
Sets 18:52:27 0° 243° (WSW) 3,790 ? -24.4°
